Location: Nelson
(41.2830°S, 173.2830°E)
Time: 19:11:07
(UTC+12:00)

SJ 16-02 - Pass Details

Date: 14 May 2021
Orbit: 606 x 616 km, 75.0° (Epoch: 18 June)

Event Time Altitude Azimuth Distance (km) Brightness Sun altitude
Rises 20:40:08 0° 216° (SW) 2,908 5.3 -37.7°
Reaches altitude 10° 20:43:00 10° 234° (SW) 1,994 4.5 -38.3°
Enters shadow 20:43:33 12° 240° (WSW) 1,853 4.4 -38.4°
